TimeMST,TemperatureF,Dew PointF,Humidity,Sea Level PressureIn,VisibilityMPH,Wind Direction,Wind SpeedMPH,Gust SpeedMPH,PrecipitationIn,Events,Conditions,WindDirDegrees,DateUTC
12:55 AM,60.8,24.8,25,29.97,10.0,Variable,4.6,-,N/A,,Mostly Cloudy,0,2013-03-28 07:55:00
1:55 AM,60.8,24.8,25,29.96,10.0,Variable,3.5,-,N/A,,Mostly Cloudy,0,2013-03-28 08:55:00
2:55 AM,57.2,24.8,29,29.96,10.0,Variable,3.5,-,N/A,,Mostly Cloudy,0,2013-03-28 09:55:00
3:55 AM,55.4,26.6,33,29.96,10.0,Variable,5.8,-,N/A,,Mostly Cloudy,0,2013-03-28 10:55:00
4:55 AM,55.4,26.6,33,29.97,10.0,South,5.8,-,N/A,,Scattered Clouds,180,2013-03-28 11:55:00
5:55 AM,51.8,26.6,38,30.00,10.0,WSW,3.5,-,N/A,,Mostly Cloudy,250,2013-03-28 12:55:00
6:55 AM,53.6,26.6,35,30.03,10.0,Calm,Calm,-,N/A,,Scattered Clouds,0,2013-03-28 13:55:00
6:56 AM,53.6,26.6,35,30.03,10.0,Calm,Calm,-,N/A,,Scattered Clouds,0,2013-03-28 13:56:00
7:55 AM,60.8,26.6,27,30.02,10.0,NNE,3.5,-,N/A,,Scattered Clouds,30,2013-03-28 14:55:00
8:55 AM,62.6,28.4,27,30.03,10.0,Calm,Calm,-,N/A,,Mostly Cloudy,0,2013-03-28 15:55:00
8:58 AM,66.2,26.6,23,30.03,10.0,ENE,2.3,-,N/A,,Mostly Cloudy,60,2013-03-28 15:58:00
9:55 AM,66.2,26.6,23,30.03,10.0,Calm,Calm,-,N/A,,Mostly Cloudy,0,2013-03-28 16:55:00
10:55 AM,69.8,23.0,17,30.02,10.0,West,6.9,-,N/A,,Mostly Cloudy,260,2013-03-28 17:55:00
11:55 AM,73.4,23.0,15,30.00,10.0,South,8.1,-,N/A,,Mostly Cloudy,190,2013-03-28 18:55:00
12:55 PM,73.4,19.4,13,29.99,10.0,WSW,10.4,-,N/A,,Mostly Cloudy,240,2013-03-28 19:55:00
1:55 PM,73.4,23.0,15,29.97,10.0,West,15.0,20.7,N/A,,Overcast,270,2013-03-28 20:55:00
2:55 PM,75.2,15.8,11,29.95,10.0,WNW,11.5,-,N/A,,Mostly Cloudy,290,2013-03-28 21:55:00
3:55 PM,73.4,19.4,13,29.95,10.0,NW,9.2,-,N/A,,Mostly Cloudy,310,2013-03-28 22:55:00
4:55 PM,73.4,17.6,12,29.96,10.0,West,11.5,-,N/A,,Mostly Cloudy,270,2013-03-28 23:55:00
5:55 PM,71.6,12.2,10,29.99,10.0,West,12.7,-,N/A,,Mostly Cloudy,280,2013-03-29 00:55:00
6:55 PM,66.2,17.6,15,30.00,10.0,SW,12.7,-,N/A,,Mostly Cloudy,230,2013-03-29 01:55:00
7:55 PM,64.4,17.6,16,30.00,10.0,WSW,10.4,-,N/A,,Mostly Cloudy,240,2013-03-29 02:55:00
8:55 PM,64.4,19.4,18,30.01,10.0,West,9.2,-,N/A,,Mostly Cloudy,260,2013-03-29 03:55:00
9:55 PM,60.8,19.4,20,30.03,10.0,WNW,4.6,-,N/A,,Mostly Cloudy,290,2013-03-29 04:55:00
10:55 PM,60.8,21.2,22,30.17,10.0,West,8.1,-,N/A,,Mostly Cloudy,280,2013-03-29 05:55:00
11:55 PM,59.0,21.2,23,30.04,10.0,WSW,5.8,-,N/A,,Overcast,250,2013-03-29 06:55:00